Estación de Pirque

Ultimos registro cada 15 minutos 78
Estación Fecha / Hora Temperatura Humedad Lluvia Velocidad Dirección Radiación Presion
78 Pirque 05-05-2026 19:15 13,4 77,1 0 0 282 0,6 937,7
77 Pirque 05-05-2026 19:00 13,6 75,3 0 0 282 0,6 937,5
76 Pirque 05-05-2026 18:45 13,5 74,8 0 0 282 0,6 937,2
75 Pirque 05-05-2026 18:30 14,2 72,4 0 0 282 0,6 937,3
74 Pirque 05-05-2026 18:15 14,9 69,6 0 0 282 0,6 937,1
73 Pirque 05-05-2026 18:00 15,5 65,6 0 0 282 1,9 936,7
72 Pirque 05-05-2026 17:45 16,4 62 0 0 282 8,1 936,5
71 Pirque 05-05-2026 17:30 16,9 58,8 0 0 284 13,1 936,2
70 Pirque 05-05-2026 17:15 17,6 55,7 0 0 284 25,6 936
69 Pirque 05-05-2026 17:00 18,2 52,1 0 0 284 38,1 936,2
68 Pirque 05-05-2026 16:45 18,7 49,3 0 0 286 51,9 936,2
67 Pirque 05-05-2026 16:30 19 47,7 0 0 286 59,4 935,9
66 Pirque 05-05-2026 16:15 19,4 46,4 0 0 289 74,4 935,8
65 Pirque 05-05-2026 16:00 19,8 45,2 0 0 289 83,1 936,1
64 Pirque 05-05-2026 15:45 20,1 43,3 0 0 289 81,9 936,1
63 Pirque 05-05-2026 15:30 20,5 42,3 0 0 288 106,9 936,3
62 Pirque 05-05-2026 15:15 20,7 38,9 0 0 289 103,1 936,2
61 Pirque 05-05-2026 15:00 21,2 36,7 0 0 254 136,9 936
60 Pirque 05-05-2026 14:45 21,7 37,1 0 0 250 158,1 935,7
59 Pirque 05-05-2026 14:30 22,2 36 0 0 258 161,9 935,6
58 Pirque 05-05-2026 14:15 22,8 33,8 0 0 291 151,9 935,4
57 Pirque 05-05-2026 14:00 23,3 32,9 0 0 291 163,1 935,3
56 Pirque 05-05-2026 13:45 23,5 32,4 0 0 288 263,1 935,4
55 Pirque 05-05-2026 13:30 23,3 31,9 0 0 288 304,4 935,5
54 Pirque 05-05-2026 13:15 23 31,8 0 0 288 255,6 935,6
53 Pirque 05-05-2026 13:00 22,6 32,6 0 0 285 264,4 935,4
52 Pirque 05-05-2026 12:45 22,6 34,4 0 0 286 265,6 935,5
51 Pirque 05-05-2026 12:30 23,9 33,9 0 0 292 781,9 935,5
50 Pirque 05-05-2026 12:15 22,4 36,6 0 0 279 248,1 935,6
49 Pirque 05-05-2026 12:00 22,3 37,6 0 0 260 515,6 935,4
48 Pirque 05-05-2026 11:45 21,2 39,9 0 0 263 135,6 935,6
47 Pirque 05-05-2026 11:30 20,9 40 0 0 260 228,1 935,9
46 Pirque 05-05-2026 11:15 20,5 42,8 0 0 251 260,6 936
45 Pirque 05-05-2026 11:00 18,5 46,5 0 0 253 239,4 936,7
44 Pirque 05-05-2026 10:45 18,7 45,9 0 0 257 291,9 936,7
43 Pirque 05-05-2026 10:30 17,6 50 0 0 250 469,4 936,6
42 Pirque 05-05-2026 10:15 16,6 55,3 0 0 261 246,9 936,9
41 Pirque 05-05-2026 10:00 15,4 62,1 0 0 285 218,1 936,9
40 Pirque 05-05-2026 09:45 14,6 62,6 0 0 291 170,6 936,9
39 Pirque 05-05-2026 09:30 13,6 65,9 0 0 291 131,9 937,4
38 Pirque 05-05-2026 09:15 13 68 0 0 291 83,1 937,1
37 Pirque 05-05-2026 09:00 12 72,1 0 0 289 90,6 937,3
36 Pirque 05-05-2026 08:45 10,9 78,1 0 0 286 93,1 937,6
35 Pirque 05-05-2026 08:30 10 81,5 0 0 248 51,9 938
34 Pirque 05-05-2026 08:15 9,3 82,8 0 0 248 28,1 938,1
33 Pirque 05-05-2026 08:00 9 82,8 0 0 247 14,4 938
32 Pirque 05-05-2026 07:45 8,8 82,7 0 0 246 6,9 937,7
31 Pirque 05-05-2026 07:30 8,6 83,6 0 0 246 0,6 938,3
30 Pirque 05-05-2026 07:15 8,9 81,4 0 0 246 0,6 938,2
29 Pirque 05-05-2026 07:00 9,4 79,1 0 0 246 0,6 938,1
28 Pirque 05-05-2026 06:45 8,8 83,3 0 0 246 0,6 938,2
27 Pirque 05-05-2026 06:30 8,8 82,7 0 0 246 0,6 937,9
26 Pirque 05-05-2026 06:15 8,3 84,6 0 0 246 0,6 937,8
25 Pirque 05-05-2026 06:00 8,3 83,7 0 0 246 0,6 937,4
24 Pirque 05-05-2026 05:45 8,3 83,9 0 0 246 0,6 937,5
23 Pirque 05-05-2026 05:30 8,2 83,6 0 0 246 0,6 937,1
22 Pirque 05-05-2026 05:15 7,8 85,8 0 0 246 0,6 937
21 Pirque 05-05-2026 05:00 8,1 84,1 0 0 246 0,6 936,9
20 Pirque 05-05-2026 04:45 7,6 86 0 0 246 0,6 936,8
19 Pirque 05-05-2026 04:30 7,5 85,2 0 0 246 0,6 936,7
18 Pirque 05-05-2026 04:15 7,6 85,2 0 0 246 0,6 936,5
17 Pirque 05-05-2026 04:00 8 83,3 0 0 246 0,6 936,5
16 Pirque 05-05-2026 03:45 7,4 84 0 0 246 0,6 936,4
15 Pirque 05-05-2026 03:30 8 83,8 0 0 246 0,6 936,4
14 Pirque 05-05-2026 03:15 7,9 83,8 0 0 246 0,6 936,7
13 Pirque 05-05-2026 03:00 7,8 83,8 0 0 246 0,6 936,7
12 Pirque 05-05-2026 02:45 8,7 79,7 0 0 246 0,6 937
11 Pirque 05-05-2026 02:30 8,5 81,2 0 0 246 0,6 937,2
10 Pirque 05-05-2026 02:15 8,5 82,4 0 0 246 0,6 937,6
9 Pirque 05-05-2026 02:00 7,8 83,4 0 0 246 0,6 938
8 Pirque 05-05-2026 01:45 7,9 82,1 0 0 246 0,6 938
7 Pirque 05-05-2026 01:30 8,4 80,1 0 0 246 0,6 938,2
6 Pirque 05-05-2026 01:15 8,8 80,2 0 0 246 0,6 938,2
5 Pirque 05-05-2026 01:00 8,5 82 0 0 246 0,6 938,2
4 Pirque 05-05-2026 00:45 9,2 78,6 0 0 246 0,6 938,1
3 Pirque 05-05-2026 00:30 8,9 80,4 0 0 246 0,6 938,1
2 Pirque 05-05-2026 00:15 8,7 82,2 0 0 246 0,6 938,4
1 Pirque 05-05-2026 00:00 7,7 84,3 0 0 246 0,6 938,3